GW0632 Weather Reports


time (UTC)temp
F
wind
direction
speed
knots
gust
knots
rain 1hr
in
rain 24hr
in
rain mn
in
humidity
%
barometer
mb
20260507021103 59 237 4.3 6.1 0.00 0.07 0.07 98 1009.4
20260507020602 59 279 0.9 6.1 0.00 0.07 0.07 98 1009.3
20260507020057 59 319 2.6 6.1 0.00 0.07 0.07 99 1009.4
20260507015556 59 284 2.6 7.8 0.00 0.07 0.07 99 1009.4
20260507015053 59 103 1.7 2.6 0.00 0.07 0.07 99 1009.3
20260507014549 59 278 0.0 5.2 0.00 0.07 0.07 99 1009.3
20260507014045 59 274 4.3 6.1 0.00 0.07 0.07 99 1009.3
20260507013542 58 267 0.9 5.2 0.00 0.07 0.07 99 1009.4
20260507013039 58 122 0.9 8.7 0.00 0.07 0.07 99 1009.3
20260507012536 58 300 1.7 6.1 0.00 0.07 0.07 99 1009.7
20260507012032 58 271 2.6 6.1 0.00 0.07 0.07 99 1009.7
20260507011530 58 292 2.6 7.0 0.00 0.07 0.07 99 1009.8
20260507011026 58 305 1.7 6.1 0.00 0.07 0.07 99 1009.7
20260507010520 58 251 2.6 7.8 0.00 0.07 0.07 99 1009.6
20260507010017 58 287 3.5 4.3 0.00 0.07 0.07 99 1009.8
20260507005515 58 288 3.5 8.7 0.00 0.07 0.07 99 1009.8
20260507005011 58 317 1.7 1.7 0.00 0.07 0.07 99 1009.8
20260507004508 58 303 0.0 4.3 0.00 0.07 0.07 99 1009.9
20260507004006 58 250 2.6 6.1 0.00 0.07 0.07 99 1009.7
20260507003501 58 272 0.0 4.3 0.00 0.07 0.07 99 1009.8
20260507002955 58 306 3.5 7.8 0.00 0.07 0.07 99 1009.8
20260507002453 58 342 1.7 5.2 0.00 0.07 0.07 99 1009.8
20260507001949 58 247 2.6 9.6 0.00 0.07 0.07 99 1009.6
20260507001446 58 354 0.0 5.2 0.00 0.07 0.07 99 1009.5
20260507000944 58 213 3.5 7.0 0.00 0.07 0.07 99 1009.6
20260507000439 58 292 6.1 7.8 0.00 0.07 0.07 99 1009.7
20260506235934 58 272 3.5 6.1 0.00 0.07 0.07 99 1009.7
20260506235432 58 237 3.5 7.0 0.00 0.07 0.07 99 1009.5
20260506234927 58 318 1.7 4.3 0.00 0.07 0.07 99 1009.4
20260506234426 58 238 1.7 2.6 0.00 0.07 0.07 99 1009.6
20260506233923 58 2 1.7 2.6 0.05 0.07 0.07 99 1009.2
20260506233419 58 350 1.7 2.6 0.05 0.07 0.07 99 1009.5
20260506232916 58 221 6.1 7.8 0.00 0.06 0.06 99 1009.2
20260506232412 58 312 1.7 2.6 0.00 0.06 0.06 99 1009.3
20260506231908 58 271 2.6 6.1 0.00 0.06 0.06 98 1009.3
20260506231406 58 310 4.3 5.2 0.00 0.06 0.06 98 1009.3
20260506230903 59 229 3.5 7.8 0.00 0.06 0.06 97 1009.4
20260506230400 59 327 1.7 5.2 0.00 0.06 0.06 97 1009.4
20260506225856 59 243 3.5 6.1 0.00 0.06 0.06 96 1009.3
20260506225353 59 335 3.5 6.1 0.00 0.06 0.06 96 1009.6
20260506224850 59 242 4.3 6.1 0.00 0.06 0.06 96 1009.5
20260506224348 59 207 3.5 5.2 0.00 0.06 0.06 96 1009.5
20260506223844 59 257 5.2 7.0 0.00 0.06 0.06 97 1009.2
20260506223339 59 253 2.6 4.3 0.00 0.06 0.06 97 1009.3
20260506222836 59 194 1.7 2.6 0.00 0.06 0.06 97 1009.3
20260506222332 59 286 2.6 7.0 0.00 0.06 0.06 97 1009.3
20260506221830 59 178 2.6 6.1 0.00 0.06 0.06 98 1009.5
20260506221327 59 268 4.3 8.7 0.00 0.06 0.06 99 1009.4
20260506220825 59 233 4.3 6.1 0.00 0.06 0.06 99 1009.6
20260506220320 59 292 1.7 7.8 0.00 0.06 0.06 99 1009.9
20260506215817 59 276 3.5 5.2 0.07 0.06 0.06 99 1009.9
20260506215313 59 207 4.3 6.1 0.07 0.06 0.06 98 1009.7
20260506214809 59 248 5.2 6.1 0.00 0.05 0.05 98 1009.8
20260506214305 59 176 0.9 1.7 0.00 0.05 0.05 98 1009.6
20260506213804 59 236 5.2 7.0 0.00 0.05 0.05 97 1009.8
20260506213300 59 251 3.5 5.2 0.00 0.05 0.05 97 1009.8
20260506212758 59 246 7.8 12.2 0.00 0.05 0.05 96 1010.1
20260506212254 60 256 3.5 6.1 0.00 0.05 0.05 96 1010.1
20260506211749 59 301 4.3 7.0 0.00 0.05 0.05 96 1009.9
20260506211245 59 298 1.7 5.2 0.00 0.05 0.05 97 1010.1
20260506210743 59 239 4.3 6.1 0.00 0.05 0.05 97 1010.2
20260506210239 59 183 4.3 7.8 0.07 0.05 0.05 97 1010.1
20260506205736 59 214 3.5 8.7 0.07 0.05 0.05 97 1010.3
20260506205232 60 211 1.7 7.8 0.05 0.04 0.04 96 1010.3
20260506204729 60 238 4.3 7.0 0.05 0.04 0.04 96 1010.3
20260506204226 60 241 6.1 9.6 0.07 0.03 0.03 95 1010.3
20260506203724 60 315 4.3 7.8 0.07 0.03 0.03 94 1010.2
20260506203215 60 325 3.5 11.3 0.00 0.02 0.02 93 1010.3
20260506202713 60 273 1.7 11.3 0.00 0.02 0.02 93 1010.4
20260506202209 60 9 0.9 9.6 0.00 0.02 0.02 93 1010.6
20260506201706 60 303 3.5 7.8 0.00 0.02 0.02 93 1010.6
20260506201203 60 223 6.1 8.7 0.00 0.02 0.02 93 1010.5
20260506200659 61 219 6.1 7.0 0.00 0.02 0.02 93 1010.4
20260506200156 61 270 2.6 5.2 0.00 0.02 0.02 93 1010.3
20260506195653 61 293 2.6 8.7 0.05 0.02 0.02 92 1010.4
20260506195149 61 247 2.6 5.2 0.00 0.01 0.01 91 1010.3
20260506194647 61 271 1.7 2.6 0.00 0.01 0.01 91 1010.3
20260506194143 62 295 3.5 7.8 0.00 0.01 0.01 89 1010.1
20260506193641 62 307 2.6 9.6 0.00 0.01 0.01 87 1010.3
20260506193138 62 278 6.1 12.2 0.07 0.01 0.01 86 1010.6
20260506192634 63 230 3.5 7.0 0.07 0.01 0.01 85 1010.6
20260506192130 63 297 4.3 7.0 0.00 0.00 0.00 84 1010.5
20260506191627 63 279 5.2 7.0 0.00 0.00 0.00 83 1010.5
20260506191123 63 160 1.7 8.7 0.00 0.00 0.00 83 1010.6
20260506190621 64 229 6.1 8.7 0.00 0.00 0.00 81 1010.6
20260506190118 64 269 4.3 12.2 0.00 0.00 0.00 79 1010.6
20260506185615 65 283 7.8 12.2 0.00 0.00 0.00 77 1010.7
20260506185111 66 255 5.2 11.3 0.00 0.00 0.00 75 1010.8
20260506184609 67 229 4.3 5.2 0.00 0.00 0.00 73 1010.7
20260506184106 67 262 4.3 7.0 0.00 0.00 0.00 72 1010.4
20260506183602 67 140 6.1 8.7 0.00 0.00 0.00 70 1010.6
20260506183058 68 214 4.3 11.3 0.00 0.00 0.00 70 1010.9
20260506182556 68 225 5.2 7.8 0.00 0.00 0.00 69 1010.9
20260506182053 68 195 5.2 9.6 0.00 0.00 0.00 68 1010.8
20260506181551 68 274 4.3 7.0 0.00 0.00 0.00 67 1010.8
20260506181047 69 259 7.0 11.3 0.00 0.00 0.00 66 1010.7
20260506180544 69 265 7.0 8.7 0.00 0.00 0.00 66 1010.8
20260506180040 69 222 8.7 12.2 0.00 0.00 0.00 65 1010.9
20260506175537 70 279 5.2 11.3 0.00 0.00 0.00 65 1010.9
20260506175033 70 255 3.5 6.1 0.00 0.00 0.00 65 1010.9
20260506174532 70 260 7.0 7.8 0.00 0.00 0.00 64 1010.8
20260506174028 70 298 5.2 9.6 0.00 0.00 0.00 64 1010.9
20260506173526 70 319 8.7 13.9 0.00 0.00 0.00 63 1011.2
20260506173022 70 196 7.0 19.1 0.00 0.00 0.00 63 1011.4
20260506172520 71 276 5.2 8.7 0.00 0.00 0.00 64 1011.2
20260506172016 71 233 2.6 9.6 0.00 0.00 0.00 61 1011.4
20260506171514 71 334 8.7 12.2 0.00 0.00 0.00 61 1011.2
20260506171011 71 279 5.2 11.3 0.00 0.00 0.00 61 1011.2
20260506170508 71 296 8.7 19.1 0.00 0.00 0.00 62 1011.2
20260506170006 71 229 2.6 13.0 0.00 0.00 0.00 62 1011.1
20260506165504 71 262 6.1 8.7 0.00 0.00 0.00 62 1011.0
20260506165000 72 279 7.0 17.4 0.00 0.00 0.00 61 1011.3
20260506164457 71 286 2.6 12.2 0.00 0.00 0.00 62 1011.5
20260506163954 71 228 7.0 15.6 0.00 0.00 0.00 62 1011.6
20260506163449 71 233 6.1 19.1 0.00 0.00 0.00 62 1011.8
20260506162944 71 260 6.1 11.3 0.00 0.00 0.00 63 1011.8
20260506162442 71 212 11.3 13.0 0.00 0.00 0.00 62 1011.9
20260506161934 71 231 4.3 13.0 0.00 0.00 0.00 62 1011.7
20260506161432 71 276 3.5 7.8 0.00 0.00 0.00 62 1011.9
20260506160929 71 258 7.0 12.2 0.00 0.00 0.00 62 1011.7
20260506160426 71 250 6.1 8.7 0.00 0.00 0.00 62 1011.8
20260506155923 71 219 7.8 9.6 0.00 0.00 0.00 61 1011.9
20260506155420 71 260 4.3 12.2 0.00 0.00 0.00 62 1012.0
20260506153542 71 281 3.5 9.6 0.00 0.00 0.00 64 1012.4
20260506153040 71 247 5.2 14.8 0.00 0.00 0.00 63 1012.6
20260506152537 72 247 7.8 12.2 0.00 0.00 0.00 63 1012.4
20260506152035 71 13 2.6 9.6 0.00 0.00 0.00 63 1012.7
20260506151532 70 238 3.5 7.0 0.00 0.00 0.00 65 1012.5
20260506151024 70 252 7.0 13.0 0.00 0.00 0.00 65 1012.7
20260506150520 70 187 1.7 9.6 0.00 0.00 0.00 65 1012.6
20260506150017 70 287 3.5 9.6 0.00 0.00 0.00 65 1012.6
20260506145514 70 246 7.0 9.6 0.00 0.00 0.00 66 1012.7
20260506145011 69 288 3.5 11.3 0.00 0.00 0.00 66 1012.7
20260506144507 70 237 12.2 14.8 0.00 0.00 0.00 65 1013.0
20260506144005 70 314 2.6 7.0 0.00 0.00 0.00 65 1012.4
20260506143502 70 260 5.2 18.2 0.00 0.00 0.00 66 1012.8
20260506143001 69 307 7.0 14.8 0.00 0.00 0.00 65 1012.7
20260506142458 69 276 5.2 14.8 0.00 0.00 0.00 65 1012.6
20260506141956 69 251 2.6 11.3 0.00 0.00 0.00 65 1012.3
20260506141454 70 254 4.3 13.0 0.00 0.00 0.00 65 1012.4
20260506140952 70 271 7.8 9.6 0.00 0.00 0.00 65 1012.4
20260506140449 70 30 0.9 8.7 0.00 0.00 0.00 66 1012.6
20260506135945 69 328 5.2 8.7 0.00 0.00 0.00 67 1012.5
20260506135443 69 205 1.7 8.7 0.00 0.00 0.00 68 1012.7
20260506134938 69 274 3.5 7.0 0.00 0.00 0.00 67 1012.5
20260506134435 69 232 1.7 7.8 0.00 0.00 0.00 67 1012.4
20260506133932 69 209 7.0 8.7 0.00 0.00 0.00 68 1012.4
20260506133429 69 215 5.2 15.6 0.00 0.00 0.00 68 1012.7
20260506132926 68 248 2.6 7.0 0.00 0.00 0.00 70 1012.8
20260506132423 68 239 2.6 4.3 0.00 0.00 0.00 71 1013.2
20260506131920 67 242 3.5 7.0 0.00 0.00 0.00 72 1013.2
20260506131416 67 193 2.6 9.6 0.00 0.00 0.00 73 1013.5
20260506130914 66 253 4.3 11.3 0.00 0.00 0.00 74 1013.2
20260506130410 66 227 1.7 9.6 0.00 0.00 0.00 75 1013.3
20260506125908 66 115 0.9 2.6 0.00 0.00 0.00 76 1013.0
20260506125406 66 245 5.2 6.1 0.00 0.00 0.00 75 1013.2
20260506124904 65 276 5.2 7.0 0.00 0.00 0.00 77 1013.1
20260506124401 64 257 5.2 7.8 0.00 0.00 0.00 78 1013.4
20260506123859 64 233 5.2 9.6 0.00 0.00 0.00 79 1013.1
20260506123357 64 239 2.6 2.6 0.00 0.00 0.00 79 1013.3
20260506122854 64 255 5.2 6.1 0.00 0.00 0.00 79 1013.2
20260506122350 63 288 7.0 8.7 0.00 0.00 0.00 80 1013.3
20260506121849 63 243 4.3 5.2 0.00 0.00 0.00 81 1013.0
20260506121346 62 212 6.1 7.8 0.00 0.00 0.00 82 1013.2
20260506120842 62 307 2.6 5.2 0.00 0.00 0.00 83 1013.1
20260506120340 62 183 1.7 7.0 0.00 0.00 0.00 83 1013.2
20260506115837 62 1 1.7 7.0 0.00 0.00 0.00 84 1013.5
20260506115336 61 220 1.7 11.3 0.00 0.00 0.00 85 1013.5
20260506114833 60 28 0.0 0.9 0.00 0.00 0.00 86 1013.4
20260506114331 60 319 1.7 5.2 0.00 0.00 0.00 86 1013.6
20260506113829 60 245 4.3 5.2 0.00 0.00 0.00 86 1013.8
20260506113326 60 169 1.7 7.8 0.00 0.00 0.00 86 1013.7
20260506112823 60 175 2.6 7.0 0.00 0.00 0.00 86 1014.0
20260506112320 60 304 2.6 5.2 0.00 0.00 0.00 86 1013.7
20260506111818 60 179 5.2 7.0 0.00 0.00 0.00 86 1013.7
20260506111316 60 254 4.3 7.0 0.00 0.00 0.00 86 1013.5
20260506110813 60 72 0.9 6.1 0.00 0.00 0.00 86 1013.7
20260506110310 60 204 2.6 5.2 0.00 0.00 0.00 87 1013.5
20260506105806 60 139 4.3 6.1 0.00 0.00 0.00 87 1013.6
20260506105305 59 249 6.1 7.0 0.00 0.00 0.00 87 1013.5
20260506104801 59 340 1.7 2.6 0.00 0.00 0.00 88 1013.7
20260506104258 59 287 3.5 4.3 0.00 0.00 0.00 87 1013.4
20260506103755 59 92 0.9 2.6 0.00 0.00 0.00 87 1013.7
20260506093910 60 218 2.6 6.1 0.00 0.00 0.00 85 1013.3
20260506093407 60 218 2.6 6.1 0.00 0.00 0.00 85 1013.3
20260506092905 60 358 0.9 6.1 0.00 0.00 0.00 85 1013.3
20260506092403 60 209 2.6 5.2 0.00 0.00 0.00 85 1013.3
20260506091859 60 176 1.7 6.1 0.00 0.00 0.00 85 1013.2
20260506091357 60 246 5.2 6.1 0.00 0.00 0.00 85 1013.4
20260506090854 60 271 4.3 8.7 0.00 0.00 0.00 84 1013.6
20260506090352 60 11 0.9 8.7 0.00 0.00 0.00 84 1013.3
20260506085848 60 262 8.7 11.3 0.00 0.00 0.00 84 1013.4
20260506085345 60 219 4.3 6.1 0.00 0.00 0.00 84 1013.6
20260506084841 61 323 1.7 6.1 0.00 0.00 0.00 83 1013.7
20260506084338 61 252 4.3 6.1 0.00 0.00 0.00 83 1013.7
20260506083835 61 271 3.5 6.1 0.00 0.00 0.00 83 1013.6
20260506083332 61 191 3.5 7.8 0.00 0.00 0.00 83 1013.4
20260506082829 61 251 6.1 7.8 0.00 0.00 0.00 83 1013.5
20260506082326 61 315 2.6 5.2 0.00 0.00 0.00 82 1013.5
20260506081822 61 287 6.1 8.7 0.00 0.00 0.00 82 1013.4
20260506081320 61 258 5.2 9.6 0.00 0.00 0.00 82 1013.7
20260506080817 61 284 3.5 11.3 0.00 0.00 0.00 82 1013.6
20260506080314 61 180 1.7 7.0 0.00 0.00 0.00 82 1013.5
20260506073258 61 243 7.0 9.6 0.00 0.00 0.00 81 1013.8
20260506072755 61 322 0.9 1.7 0.00 0.00 0.00 81 1013.5
20260506072252 62 260 2.6 7.8 0.00 0.00 0.00 80 1013.4
20260506071750 62 235 7.0 11.3 0.00 0.00 0.00 80 1013.5
20260506071248 62 295 2.6 6.1 0.00 0.00 0.00 80 1013.5
20260506070744 62 291 5.2 7.0 0.00 0.00 0.00 80 1013.4
20260506070241 62 222 6.1 13.9 0.00 0.00 0.00 79 1013.5
20260506062218 62 231 2.6 7.8 0.00 0.00 0.00 78 1013.3
20260506061714 62 261 4.3 9.6 0.00 0.00 0.00 78 1013.5
20260506061212 62 293 5.2 7.0 0.00 0.00 0.00 77 1013.2
20260506060711 62 198 4.3 8.7 0.00 0.00 0.00 77 1013.2
20260506060207 63 127 3.5 7.8 0.00 0.00 0.00 76 1013.3
20260506051139 63 275 4.3 9.6 0.00 0.00 0.00 72 1013.7
20260506050637 63 286 1.7 7.0 0.00 0.00 0.00 72 1013.8
20260506050134 64 246 4.3 8.7 0.00 0.00 0.00 71 1013.7
20260506045127 64 238 4.3 6.1 0.00 0.00 0.00 71 1013.7
20260506044625 64 346 1.7 9.6 0.00 0.00 0.00 71 1013.8
20260506044122 64 64 1.7 6.1 0.00 0.00 0.00 70 1013.9
20260506043619 64 236 6.1 7.8 0.00 0.00 0.00 70 1014.0
20260506043117 64 228 7.0 7.8 0.00 0.00 0.00 69 1013.7
20260506042616 64 223 6.1 8.7 0.00 0.00 0.00 69 1013.8
20260506042113 64 249 4.3 7.8 0.00 0.00 0.00 69 1013.9
20260506041612 64 353 2.6 5.2 0.00 0.00 0.00 69 1014.0
20260506041108 64 250 4.3 11.3 0.00 0.00 0.00 68 1014.0
20260506040606 64 284 3.5 11.3 0.00 0.00 0.00 68 1013.6
20260506035559 64 244 4.3 6.1 0.00 0.00 0.00 68 1013.8
20260506035056 64 235 6.1 9.6 0.00 0.00 0.00 68 1013.7
20260506034553 64 271 7.0 9.6 0.00 0.00 0.00 68 1013.4
20260506034050 64 160 4.3 7.8 0.00 0.00 0.00 67 1013.6
20260506033547 64 239 6.1 9.6 0.00 0.00 0.00 67 1013.8
20260506033044 64 302 4.3 5.2 0.00 0.00 0.00 67 1013.7
20260506032542 64 266 2.6 7.8 0.00 0.00 0.00 67 1013.6
20260506032038 64 268 6.1 7.0 0.00 0.00 0.00 67 1013.5
20260506031536 64 257 6.1 9.6 0.00 0.00 0.00 67 1013.6
20260506031033 64 266 7.0 7.8 0.00 0.00 0.00 67 1013.7
20260506030531 64 222 4.3 7.8 0.00 0.00 0.00 67 1013.7
20260506030028 64 162 6.1 9.6 0.00 0.00 0.00 67 1013.6
20260506025525 64 215 11.3 13.0 0.00 0.00 0.00 67 1013.7
20260506025021 64 202 7.8 12.2 0.00 0.00 0.00 67 1013.5
20260506024518 64 275 6.1 11.3 0.00 0.00 0.00 67 1013.5
20260506024014 64 238 5.2 7.0 0.00 0.00 0.00 68 1013.6
20260506023510 64 231 2.6 7.8 0.00 0.00 0.00 67 1013.7
20260506023008 64 293 4.3 7.8 0.00 0.00 0.00 67 1013.6
20260506022505 64 323 2.6 6.1 0.00 0.00 0.00 67 1013.5
20260506022003 64 217 8.7 12.2 0.00 0.00 0.00 67 1013.7
20260506021500 64 339 4.3 9.6 0.00 0.00 0.00 67 1013.7